DAL1582 SVMC-TBPB

Flight info

Callsign DAL1582
Flight time N/A
Altitude FL330
Route VUKOB1.MAU VUNUM TOROP OPLUD BGI
Aircraft MD82/M-S/NAEXS

Departure

Time 2026-05-06 03:31
Airport La Chinita International Airport (SVMC)

Arrival

Time N/A
Airport Grantley Adams International Airport (TBPB)
Time Latitude Longitude Altitude Speed Heading
2026-05-06 03:13 10.56127 -71.72232 243 ft 0 kts 180°
2026-05-06 03:19 10.56126 -71.72232 243 ft 0 kts 180°
2026-05-06 03:21 10.56137 -71.72232 243 ft 2 kts 180°
2026-05-06 03:21 10.56155 -71.72232 243 ft 3 kts 180°
2026-05-06 03:21 10.56175 -71.72232 243 ft 3 kts 180°
2026-05-06 03:22 10.56194 -71.72238 243 ft 3 kts 134°
2026-05-06 03:22 10.56202 -71.72256 243 ft 3 kts 91°
2026-05-06 03:22 10.56202 -71.72258 243 ft 0 kts 91°
2026-05-06 03:23 10.56202 -71.72257 243 ft 0 kts 91°
2026-05-06 03:23 10.56202 -71.72255 243 ft 1 kts 88°
2026-05-06 03:23 10.56203 -71.72250 243 ft 1 kts 76°
2026-05-06 03:24 10.56206 -71.72245 243 ft 1 kts 51°
2026-05-06 03:24 10.56211 -71.72243 243 ft 1 kts 24°
2026-05-06 03:24 10.56215 -71.72243 243 ft 1 kts
2026-05-06 03:24 10.56227 -71.72243 243 ft 3 kts
2026-05-06 03:25 10.56258 -71.72241 243 ft 6 kts
2026-05-06 03:25 10.56308 -71.72231 243 ft 9 kts 16°
2026-05-06 03:25 10.56374 -71.72212 243 ft 11 kts 18°
2026-05-06 03:25 10.56456 -71.72183 243 ft 14 kts 20°
2026-05-06 03:26 10.56525 -71.72166 243 ft 11 kts 344°
2026-05-06 03:26 10.56562 -71.72239 243 ft 12 kts 284°
2026-05-06 03:26 10.56591 -71.72322 243 ft 10 kts 328°
2026-05-06 03:26 10.56665 -71.72311 243 ft 12 kts 18°
2026-05-06 03:27 10.56750 -71.72279 243 ft 14 kts 20°
2026-05-06 03:27 10.56850 -71.72242 243 ft 16 kts 20°
2026-05-06 03:27 10.56964 -71.72200 243 ft 19 kts 20°
2026-05-06 03:27 10.57093 -71.72153 243 ft 21 kts 20°
2026-05-06 03:28 10.57235 -71.72100 243 ft 23 kts 20°
2026-05-06 03:28 10.57370 -71.72059 243 ft 19 kts
2026-05-06 03:28 10.57488 -71.72069 243 ft 12 kts 350°
2026-05-06 03:28 10.57533 -71.72090 243 ft 1 kts 298°
2026-05-06 03:29 10.57541 -71.72105 243 ft 3 kts 298°
2026-05-06 03:29 10.57555 -71.72134 243 ft 6 kts 288°
2026-05-06 03:29 10.57540 -71.72159 243 ft 0 kts 204°
2026-05-06 03:29 10.57538 -71.72160 243 ft 1 kts 204°
2026-05-06 03:30 10.57457 -71.72193 243 ft 38 kts 200°
2026-05-06 03:30 10.56993 -71.72364 243 ft 102 kts 199°
2026-05-06 03:30 10.56151 -71.72673 245 ft 154 kts 200°
2026-05-06 03:30 10.55085 -71.73090 594 ft 170 kts 201°
2026-05-06 03:31 10.53987 -71.73554 1211 ft 180 kts 203°
2026-05-06 03:31 10.52816 -71.74128 1947 ft 187 kts 207°
2026-05-06 03:31 10.51670 -71.74709 2828 ft 184 kts 206°
2026-05-06 03:31 10.50513 -71.75271 3429 ft 189 kts 202°
2026-05-06 03:32 10.49120 -71.75495 3492 ft 221 kts 179°
2026-05-06 03:32 10.47604 -71.75076 3897 ft 234 kts 151°
2026-05-06 03:32 10.46451 -71.73892 4398 ft 249 kts 124°
2026-05-06 03:32 10.45936 -71.72150 4878 ft 263 kts 94°
2026-05-06 03:33 10.46279 -71.70348 5502 ft 273 kts 68°
2026-05-06 03:33 10.47458 -71.68818 6185 ft 279 kts 40°
2026-05-06 03:33 10.49124 -71.67788 6937 ft 281 kts 32°
2026-05-06 03:33 10.50545 -71.66446 7473 ft 288 kts 57°
2026-05-06 03:34 10.51271 -71.64611 8217 ft 284 kts 83°
2026-05-06 03:34 10.51277 -71.62585 9043 ft 280 kts 95°
2026-05-06 03:34 10.51258 -71.60583 9679 ft 287 kts 91°
2026-05-06 03:34 10.51438 -71.58542 10318 ft 293 kts 85°
2026-05-06 03:35 10.51810 -71.56451 10650 ft 313 kts 80°
2026-05-06 03:35 10.52360 -71.54249 11015 ft 328 kts 77°
2026-05-06 03:35 10.53026 -71.52039 11611 ft 335 kts 75°
2026-05-06 03:35 10.53781 -71.49757 12269 ft 340 kts 73°
2026-05-06 03:36 10.54551 -71.47517 12936 ft 343 kts 73°
2026-05-06 03:36 10.55349 -71.45200 13582 ft 347 kts 73°
2026-05-06 03:36 10.56149 -71.42840 14126 ft 354 kts 73°
2026-05-06 03:36 10.56939 -71.40480 14767 ft 356 kts 74°
2026-05-06 03:37 10.57731 -71.38101 15394 ft 359 kts 74°
2026-05-06 03:37 10.58528 -71.35676 15969 ft 363 kts 74°
2026-05-06 03:37 10.59316 -71.33250 16632 ft 363 kts 74°
2026-05-06 03:37 10.60115 -71.30804 17177 ft 368 kts 74°
2026-05-06 03:38 10.60930 -71.28335 17733 ft 371 kts 74°
2026-05-06 03:38 10.61754 -71.25847 18343 ft 372 kts 74°
2026-05-06 03:38 10.62563 -71.23381 18830 ft 377 kts 74°
2026-05-06 03:38 10.63404 -71.20814 19369 ft 380 kts 74°
2026-05-06 03:39 10.64246 -71.18259 19901 ft 383 kts 74°
2026-05-06 03:39 10.65091 -71.15694 20392 ft 386 kts 74°
2026-05-06 03:39 10.65943 -71.13109 20906 ft 388 kts 74°
2026-05-06 03:39 10.66796 -71.10523 21441 ft 390 kts 74°
2026-05-06 03:40 10.67665 -71.07890 21942 ft 392 kts 74°
2026-05-06 03:40 10.68535 -71.05248 22424 ft 394 kts 74°
2026-05-06 03:40 10.69309 -71.02601 23011 ft 391 kts 78°
2026-05-06 03:40 10.69883 -70.99972 23748 ft 383 kts 82°
2026-05-06 03:41 10.70375 -70.97213 23564 ft 403 kts 84°
2026-05-06 03:41 10.70720 -70.94439 23490 ft 385 kts 86°
2026-05-06 03:41 10.71091 -70.91778 23411 ft 369 kts 84°
2026-05-06 03:41 10.71492 -70.89300 23440 ft 351 kts 83°
2026-05-06 03:42 10.71954 -70.86904 23286 ft 339 kts 82°
2026-05-06 03:42 10.72458 -70.84561 22756 ft 339 kts 80°
2026-05-06 03:42 10.73002 -70.82224 21999 ft 343 kts 80°
2026-05-06 03:42 10.73397 -70.79954 22318 ft 308 kts 84°
2026-05-06 03:43 10.73720 -70.77866 22185 ft 295 kts 85°
2026-05-06 03:43 10.73559 -70.75860 21698 ft 279 kts 120°
2026-05-06 03:43 10.72228 -70.74606 21416 ft 255 kts 163°
2026-05-06 03:43 10.70593 -70.74647 21386 ft 231 kts 205°
2026-05-06 03:44 10.69654 -70.75864 21175 ft 224 kts 250°
2026-05-06 03:44 10.69776 -70.77438 20771 ft 235 kts 285°
2026-05-06 03:44 10.70474 -70.78929 20557 ft 234 kts 288°
2026-05-06 03:44 10.71063 -70.80468 20229 ft 232 kts 276°
2026-05-06 03:45 10.71160 -70.82082 19879 ft 230 kts 260°
2026-05-06 03:45 10.71046 -70.83684 19708 ft 226 kts 258°
2026-05-06 03:45 10.70868 -70.85234 19643 ft 216 kts 254°
2026-05-06 03:45 10.70672 -70.86768 19323 ft 221 kts 256°
2026-05-06 03:46 10.70521 -70.88298 19133 ft 218 kts 258°
2026-05-06 03:46 10.70413 -70.89842 18866 ft 220 kts 261°
2026-05-06 03:46 10.70331 -70.91392 18607 ft 221 kts 259°
2026-05-06 03:46 10.70186 -70.92978 18212 ft 228 kts 256°
2026-05-06 03:47 10.70033 -70.94041 17990 ft 230 kts 256°
2026-05-06 03:47 10.69755 -70.96176 17644 ft 233 kts 257°
2026-05-06 03:47 10.69604 -70.97851 17290 ft 240 kts 262°
2026-05-06 03:47 10.69562 -70.99545 17077 ft 240 kts 262°
2026-05-06 03:48 10.69486 -71.01207 17009 ft 233 kts 261°
2026-05-06 03:48 10.69398 -71.02848 16815 ft 233 kts 261°
2026-05-06 03:48 10.69279 -71.04499 16435 ft 239 kts 256°
2026-05-06 03:48 10.68821 -71.06120 16159 ft 238 kts 239°
2026-05-06 03:49 10.68008 -71.07575 15935 ft 238 kts 235°
2026-05-06 03:49 10.67152 -71.09022 15757 ft 238 kts 236°
2026-05-06 03:49 10.66366 -71.10492 15586 ft 238 kts 238°
2026-05-06 03:49 10.65622 -71.11988 15401 ft 238 kts 239°
2026-05-06 03:50 10.64889 -71.13438 15306 ft 233 kts 236°
2026-05-06 03:50 10.64096 -71.14883 15203 ft 229 kts 235°
2026-05-06 03:50 10.63332 -71.16285 14885 ft 236 kts 235°
2026-05-06 03:50 10.62378 -71.17735 14406 ft 247 kts 227°
2026-05-06 03:51 10.61348 -71.19154 14160 ft 252 kts 232°
2026-05-06 03:51 10.60506 -71.20701 14084 ft 249 kts 238°
2026-05-06 03:51 10.59750 -71.22271 13945 ft 249 kts 239°
2026-05-06 03:51 10.58983 -71.23855 13637 ft 250 kts 239°
2026-05-06 03:52 10.58204 -71.25413 13363 ft 249 kts 238°
2026-05-06 03:52 10.57366 -71.26956 13094 ft 247 kts 234°
2026-05-06 03:52 10.56323 -71.28338 12752 ft 248 kts 224°
2026-05-06 03:52 10.55149 -71.29619 12465 ft 248 kts 223°
2026-05-06 03:53 10.53966 -71.30862 12238 ft 246 kts 223°
2026-05-06 03:53 10.52831 -71.32176 11900 ft 249 kts 227°
2026-05-06 03:53 10.51777 -71.33573 11650 ft 248 kts 229°
2026-05-06 03:53 10.50764 -71.34985 11387 ft 249 kts 230°
2026-05-06 03:54 10.49794 -71.36442 11118 ft 249 kts 232°
2026-05-06 03:54 10.48847 -71.37914 10859 ft 249 kts 232°
2026-05-06 03:54 10.47895 -71.39349 10748 ft 242 kts 232°
2026-05-06 03:54 10.47120 -71.40849 10564 ft 243 kts 245°
2026-05-06 03:55 10.46707 -71.42505 10421 ft 238 kts 252°
2026-05-06 03:55 10.46366 -71.44113 10352 ft 231 kts 253°
2026-05-06 03:55 10.46064 -71.45719 10128 ft 231 kts 253°
2026-05-06 03:55 10.45781 -71.47315 9917 ft 230 kts 255°
2026-05-06 03:56 10.45502 -71.48881 9816 ft 224 kts 254°
2026-05-06 03:56 10.45236 -71.50365 9686 ft 218 kts 255°
2026-05-06 03:56 10.44941 -71.51931 9404 ft 219 kts 253°
2026-05-06 03:56 10.44596 -71.53441 9097 ft 222 kts 251°
2026-05-06 03:57 10.44238 -71.54977 8852 ft 223 kts 252°
2026-05-06 03:57 10.43886 -71.56477 8748 ft 217 kts 251°
2026-05-06 03:57 10.43476 -71.57949 8542 ft 216 kts 248°
2026-05-06 03:57 10.43002 -71.59416 8250 ft 220 kts 246°
2026-05-06 03:58 10.42464 -71.60867 8009 ft 221 kts 243°
2026-05-06 03:58 10.41881 -71.62294 7862 ft 217 kts 242°
2026-05-06 03:58 10.41275 -71.63672 7728 ft 210 kts 241°
2026-05-06 03:58 10.40636 -71.64993 7477 ft 208 kts 238°
2026-05-06 03:59 10.39922 -71.66247 7291 ft 203 kts 234°
2026-05-06 03:59 10.39178 -71.67439 7092 ft 199 kts 233°
2026-05-06 03:59 10.38440 -71.68625 6787 ft 199 kts 235°
2026-05-06 03:59 10.37754 -71.69843 6419 ft 200 kts 241°
2026-05-06 04:00 10.37315 -71.71188 6066 ft 201 kts 254°
2026-05-06 04:00 10.37192 -71.72593 5666 ft 205 kts 267°
2026-05-06 04:00 10.37410 -71.74020 5402 ft 202 kts 283°
2026-05-06 04:00 10.38010 -71.75279 5266 ft 194 kts 297°
2026-05-06 04:01 10.38797 -71.76338 5124 ft 187 kts 305°
2026-05-06 04:01 10.39718 -71.77268 4915 ft 186 kts 314°
2026-05-06 04:01 10.40841 -71.77929 4715 ft 188 kts 333°
2026-05-06 04:01 10.42134 -71.78207 4460 ft 193 kts 353°
2026-05-06 04:02 10.43458 -71.78011 4182 ft 196 kts 14°
2026-05-06 04:02 10.44682 -71.77438 3835 ft 192 kts 28°
2026-05-06 04:02 10.45793 -71.76719 3460 ft 190 kts 33°
2026-05-06 04:02 10.46931 -71.76012 2964 ft 191 kts 26°
2026-05-06 04:03 10.48150 -71.75517 2547 ft 187 kts 19°
2026-05-06 04:03 10.49382 -71.75159 2069 ft 183 kts 15°
2026-05-06 04:03 10.50579 -71.74768 1602 ft 179 kts 18°
2026-05-06 04:03 10.51709 -71.74310 1206 ft 172 kts 21°
2026-05-06 04:04 10.52810 -71.73889 842 ft 168 kts 18°
2026-05-06 04:04 10.53888 -71.73504 560 ft 160 kts 17°
2026-05-06 04:04 10.54889 -71.73133 325 ft 155 kts 13°
2026-05-06 04:04 10.55818 -71.72802 243 ft 98 kts 27°
2026-05-06 04:05 10.56095 -71.72691 243 ft 10 kts 17°
2026-05-06 04:05 10.56127 -71.72670 243 ft 2 kts 56°
2026-05-06 04:05 10.56127 -71.72669 243 ft 0 kts 57°
2026-05-06 04:05 10.56129 -71.72667 243 ft 1 kts 53°
2026-05-06 04:06 10.56135 -71.72665 243 ft 3 kts 20°
2026-05-06 04:06 10.56180 -71.72650 243 ft 9 kts 17°
2026-05-06 04:06 10.56253 -71.72616 243 ft 14 kts 50°
2026-05-06 04:06 10.56249 -71.72514 243 ft 18 kts 101°
2026-05-06 04:07 10.56216 -71.72403 243 ft 14 kts 99°
2026-05-06 04:07 10.56187 -71.72315 243 ft 13 kts 115°
2026-05-06 04:07 10.56161 -71.72241 243 ft 6 kts 136°
2026-05-06 04:07 10.56134 -71.72234 243 ft 3 kts 174°
2026-05-06 04:08 10.56125 -71.72233 243 ft 0 kts 176°